Wind_Speed
13 8 18 11 14 18 18 1 6 6 6 10 13 14 12 21 20 29 36 41 42 41 42 42 39 36 37 37 36 37 38 35
12 17 15 13 13 11 7 19 19 9 6 8 6 12 12 12 24 32 34 37 39 43 47 44 40 37 36 37 38 39 40 37
12 20 24 11 11 4 6 8 15 15 14 8 14 15 13 15 26 28 32 38 41 42 48 46 43 43 41 39 38 40 41 42
21 3 13 21 21 20 13 12 6 9 13 4 15 16 15 18 16 19 28 36 35 34 36 40 46 45 46 44 42 40 42 44
15 18 14 11 20 22 18 14 18 15 13 3 6 12 17 16 14 13 21 25 29 28 31 34 38 44 46 47 46 44 44 46
15 19 16 14 13 19 20 16 16 16 18 10 10 13 16 19 21 14 19 27 29 28 31 31 31 34 39 45 45 43 46 48
23 25 24 22 21 17 20 25 18 19 18 17 16 16 21 25 15 14 19 23 31 31 30 31 32 32 33 34 38 40 44 47
16 22 24 26 24 18 22 23 19 12 12 13 12 14 12 20 18 19 24 29 32 30 32 32 29 28 28 28 29 31 35 37
8 10 16 22 25 21 14 14 16 15 10 7 7 11 20 22 21 25 29 31 32 35 32 27 23 21 20 19 18 21 23 26
7 2 9 14 19 24 24 21 15 14 11 9 12 7 5 13 17 16 16 20 21 19 19 14 10 7 7 6 6 10 14 18
5 5 11 8 7 9 15 18 7 11 10 3 5 12 3 5 12 12 14 10 7 10 12 15 14 10 6 3 0 5 10 14
3 9 8 3 6 6 3 13 6 8 7 4 7 10 4 1 9 12 16 22 28 27 25 22 19 16 12 9 5 1 5 8
9 9 8 5 14 5 10 6 8 9 8 11 3 6 12 19 23 27 28 32 29 25 25 22 17 12 7 2 2 7 8 9
5 6 8 23 10 5 7 12 20 27 31 29 24 24 22 26 31 35 33 25 23 22 19 16 12 2 4 8 9 10 13 11
5 5 16 15 6 9 19 22 21 34 31 27 26 21 23 24 24 26 23 22 15 11 7 5 3 1 4 10 14 11 10 12
5 4 7 9 10 13 12 15 13 21 26 27 24 20 21 21 19 18 15 15 14 11 9 5 2 2 7 10 9 11 10 12
6 9 5 7 7 10 14 16 25 25 22 20 23 21 18 20 18 17 15 14 11 8 7 5 2 4 7 7 9 6 12 16
7 8 4 6 8 16 24 21 19 28 26 23 23 22 18 21 19 17 14 11 8 6 5 5 4 4 4 7 9 15 16 17
2 18 22 12 14 15 27 26 26 29 27 24 22 21 21 20 16 12 10 7 4 4 4 5 5 4 7 9 13 18 11 8
Wind_Direction
211 186 190 182 216 227 239 79 242 200 243 273 261 252 231 224 214 213 214 213 215 217 219 220 221 218 221 223 223 225 228 229
190 214 209 206 176 199 217 232 238 226 241 245 243 252 240 212 214 221 214 213 212 214 219 218 219 216 220 222 224 223 227 228
219 221 218 202 205 218 249 235 237 242 242 215 236 245 242 232 226 222 210 208 209 210 219 220 220 221 221 224 226 228 228 228
236 222 250 233 221 210 223 204 234 253 233 217 229 246 247 246 243 228 213 211 208 209 212 216 221 225 226 228 229 230 231 231
239 240 230 237 225 221 231 242 225 235 240 222 252 246 246 257 249 228 209 201 202 202 209 216 221 225 228 231 232 235 233 236
232 234 237 225 242 219 217 228 228 229 242 229 234 238 243 238 248 224 205 203 200 202 216 222 224 226 229 234 235 235 238 240
223 228 215 228 229 215 218 228 228 228 219 225 225 223 228 229 236 207 199 198 204 209 215 221 225 230 234 238 240 241 244 244
242 235 219 213 225 235 218 220 227 233 216 232 230 231 238 222 205 206 205 208 206 211 218 222 227 234 239 244 244 246 248 252
262 231 228 231 220 219 224 208 209 215 215 211 220 229 232 226 205 208 209 208 209 213 216 221 228 236 248 258 258 256 258 252
294 253 228 241 240 230 232 237 234 256 253 221 238 190 190 224 215 222 223 222 219 213 214 224 224 220 219 236 259 263 261 255
322 298 289 256 204 220 207 226 210 233 239 240 198 161 127 211 210 215 228 228 196 181 165 136 126 123 121 112 109 265 259 252
338 282 276 26 335 346 282 220 183 214 221 193 162 200 117 219 137 142 138 142 138 134 132 122 116 110 99 98 80 306 246 235
315 264 271 6 329 265 190 190 154 173 131 131 159 93 109 106 106 121 127 127 123 119 124 116 109 100 101 76 324 251 228 222
269 248 244 353 324 245 97 118 126 110 106 106 107 106 107 107 107 106 109 109 112 120 124 126 122 125 276 253 241 218 202 208
207 283 320 341 276 102 111 107 100 101 108 108 102 92 96 96 97 100 104 104 102 104 118 141 150 213 235 230 230 201 204 206
114 261 296 0 66 80 97 94 94 98 102 100 97 96 88 85 82 88 93 91 91 81 66 53 68 225 243 234 225 216 199 194
135 169 181 74 86 86 86 90 90 85 83 85 98 90 92 91 92 86 82 79 81 78 87 100 121 220 229 219 214 183 172 191
164 137 81 117 120 105 89 80 83 94 86 83 77 81 83 77 74 70 65 62 63 66 97 118 141 149 137 149 179 190 195 198
334 133 105 111 96 93 101 95 90 85 81 72 72 71 67 63 56 52 54 45 45 80 121 134 124 128 147 172 191 210 204 240
Height
1440 1441 1443 1455 1461 1448 1464 1484 1481 1466 1466 1455 1446 1445 1447 1448 1455 1457 1463 1468 1471 1480 1486 1492 1497 1501 1505 1510 1514 1518 1521 1526
1430 1437 1436 1438 1440 1463 1463 1481 1490 1471 1472 1459 1445 1440 1437 1444 1444 1445 1450 1458 1465 1469 1475 1483 1489 1494 1500 1503 1507 1512 1517 1522
1431 1427 1431 1438 1443 1446 1442 1451 1463 1474 1458 1440 1438 1432 1430 1432 1433 1435 1441 1447 1452 1458 1466 1474 1481 1487 1491 1496 1501 1507 1511 1515
1426 1419 1419 1418 1426 1430 1443 1459 1455 1452 1448 1426 1427 1425 1425 1425 1427 1432 1435 1438 1445 1452 1459 1467 1473 1478 1483 1489 1495 1499 1503 1508
1432 1423 1419 1422 1418 1419 1423 1428 1439 1453 1444 1424 1425 1427 1425 1424 1422 1425 1429 1434 1439 1448 1452 1457 1464 1470 1475 1479 1484 1490 1496 1500
1423 1419 1413 1422 1420 1416 1421 1429 1434 1434 1432 1423 1421 1423 1419 1418 1417 1420 1424 1428 1432 1440 1444 1449 1455 1461 1466 1472 1478 1484 1488 1490
1395 1394 1401 1407 1409 1412 1418 1412 1423 1419 1424 1412 1412 1412 1411 1409 1414 1417 1420 1423 1427 1432 1437 1443 1449 1455 1461 1467 1472 1476 1479 1483
1401 1391 1391 1398 1399 1401 1403 1404 1409 1408 1412 1401 1402 1406 1406 1405 1409 1412 1414 1417 1422 1427 1432 1437 1444 1450 1456 1461 1466 1469 1474 1479
1402 1389 1396 1402 1390 1394 1398 1397 1397 1407 1396 1391 1394 1398 1398 1400 1401 1405 1407 1411 1416 1420 1426 1434 1441 1447 1453 1457 1461 1465 1469 1473
1404 1400 1417 1382 1375 1378 1382 1385 1387 1389 1388 1388 1388 1393 1396 1397 1397 1402 1406 1410 1414 1421 1426 1434 1440 1445 1449 1453 1457 1460 1463 1467
1416 1406 1387 1378 1376 1379 1381 1383 1388 1386 1385 1384 1392 1393 1394 1394 1394 1397 1401 1408 1414 1420 1427 1432 1437 1441 1445 1449 1453 1457 1459 1461
1416 1422 1406 1383 1384 1383 1381 1382 1384 1385 1383 1385 1391 1389 1389 1394 1390 1395 1401 1406 1411 1418 1425 1430 1435 1438 1443 1447 1450 1452 1454 1456
1417 1416 1388 1390 1387 1384 1384 1374 1375 1379 1379 1383 1389 1390 1393 1393 1394 1396 1404 1409 1414 1419 1425 1430 1434 1438 1441 1443 1447 1450 1451 1454
1424 1413 1400 1392 1385 1381 1375 1379 1376 1375 1377 1387 1393 1393 1398 1401 1404 1403 1405 1415 1418 1420 1427 1429 1432 1435 1437 1440 1442 1444 1448 1449
1413 1410 1403 1398 1396 1388 1386 1386 1387 1374 1383 1392 1395 1401 1400 1403 1406 1408 1412 1413 1422 1425 1428 1429 1430 1431 1432 1434 1437 1438 1438 1445
1404 1410 1403 1399 1398 1391 1391 1391 1394 1390 1392 1394 1394 1403 1404 1406 1410 1411 1416 1415 1419 1424 1426 1428 1428 1428 1429 1431 1433 1437 1439 1447
1395 1401 1405 1402 1401 1397 1397 1395 1393 1394 1398 1401 1398 1404 1408 1406 1411 1411 1414 1414 1420 1424 1425 1426 1427 1428 1430 1430 1434 1433 1438 1443
1390 1395 1396 1403 1403 1400 1397 1398 1400 1398 1404 1406 1403 1404 1409 1407 1409 1411 1414 1418 1419 1422 1424 1426 1427 1427 1428 1430 1434 1437 1440 1442
1395 1391 1395 1410 1406 1407 1402 1404 1405 1403 1404 1412 1411 1410 1406 1406 1410 1413 1415 1419 1419 1421 1423 1423 1424 1426 1428 1431 1434 1437 1440 1442